Location: Niedergestelen
(46.3129°N, 7.7822°E)
Time: 20:55:21
(UTC+00:00)

Cosmos 371 Rocket - Pass Details

Date: 01 December 2020
Orbit: 685 x 698 km, 74.0° (Epoch: 27 January)

Event Time Altitude Azimuth Distance (km) Brightness Sun altitude
Rises 18:22:33 0° 338° (NNW) 3,091 6.9 -26.6°
Reaches altitude 10° 18:24:53 10° 339° (NNW) 2,168 6.0 -27.0°
Enters shadow 18:27:55 39° 341° (NNW) 1,052 4.2 -27.5°
